FW6259 Weather Reports


Display with metric or nautical units.
time (UTC)temp
F
wind
direction
speed
MPH
gust
MPH
rain 1hr
in
rain 24hr
in
rain mn
in
humidity
%
barometer
mb
20260504013055 38 49 1.0 6.0 0.03 0.09 0.09 89 1023.7
20260504011546 39 60 1.0 4.0 0.02 0.08 0.08 89 1023.8
20260504010200 39 39 0.0 3.0 0.03 0.08 0.08 89 1023.9
20260504004556 39 66 1.0 4.0 0.03 0.07 0.07 88 1023.9
20260504003046 39 68 0.0 5.0 0.02 0.06 0.06 87 1024.0
20260504001514 40 55 0.0 3.0 0.03 0.06 0.06 86 1024.1
20260504000003 40 68 0.0 2.0 0.02 0.05 0.05 86 1024.2
20260503234601 40 147 1.0 4.0 0.01 0.04 0.04 82 1024.3
20260503233053 40 23 0.0 3.0 0.02 0.04 0.04 83 1024.3
20260503231505 40 30 0.0 4.0 0.02 0.03 0.03 82 1024.6
20260503230114 40 142 0.0 2.0 0.02 0.03 0.03 83 1024.7
20260503224553 40 342 1.0 3.0 0.03 0.03 0.03 84 1024.6
20260503223100 40 23 0.0 2.0 0.02 0.02 0.02 81 1024.6
20260503221502 40 292 0.0 2.0 0.01 0.01 0.01 82 1024.7
20260503220052 41 188 1.0 2.0 0.01 0.01 0.01 80 1024.7
20260503214507 41 123 0.0 4.0 0.00 0.00 0.00 76 1024.8
20260503213056 41 253 1.0 4.0 0.00 0.00 0.00 73 1024.8
20260503211551 41 160 2.0 3.0 0.00 0.00 0.00 72 1024.8
20260503210047 43 188 3.0 5.0 0.00 0.00 0.00 66 1024.6
20260503204600 43 206 1.0 6.0 0.00 0.00 0.00 64 1024.7
20260503203050 43 105 3.0 6.0 0.00 0.00 0.00 62 1024.5
20260503201553 43 130 0.0 4.0 0.00 0.00 0.00 62 1024.5
20260503200044 43 140 1.0 5.0 0.00 0.00 0.00 62 1024.5
20260503194619 44 348 2.0 5.0 0.00 0.00 0.00 60 1024.4
20260503193051 44 117 2.0 5.0 0.00 0.00 0.00 59 1024.2
20260503191551 44 49 2.0 5.0 0.00 0.00 0.00 58 1024.2
20260503184556 44 162 2.0 6.0 0.00 0.00 0.00 59 1024.2
20260503183050 43 63 4.0 10.0 0.00 0.00 0.00 60 1024.1
20260503181607 43 68 4.0 8.0 0.00 0.00 0.00 59 1024.2
20260503180053 43 58 3.0 6.0 0.00 0.00 0.00 60 1024.0
20260503174504 43 21 2.0 7.0 0.00 0.00 0.00 62 1023.9
20260503173054 42 70 2.0 8.0 0.00 0.00 0.00 65 1024.0
20260503171551 41 117 1.0 4.0 0.00 0.00 0.00 65 1024.1
20260503170113 41 105 1.0 4.0 0.00 0.00 0.00 66 1024.0
20260503130147 39 249 3.0 7.0 0.00 0.00 0.00 65 1023.9
20260503081504 40 162 1.0 11.0 0.00 0.01 0.00 61 1023.2
20260503071603 41 181 6.0 20.0 0.00 0.01 0.01 59 1022.7
20260503054541 41 191 5.0 12.0 0.00 0.01 0.01 60 1022.1
20260503053058 42 163 9.0 16.0 0.00 0.01 0.01 59 1022.0
20260503051651 42 240 5.0 15.0 0.00 0.01 0.01 58 1021.9
20260503050147 43 210 8.0 16.0 0.00 0.01 0.01 56 1021.8
20260503044615 44 195 8.0 15.0 0.00 0.01 0.01 54 1021.5
20260503043056 45 156 7.0 18.0 0.00 0.01 0.01 53 1021.4
20260503041608 46 199 9.0 20.0 0.00 0.01 0.01 52 1020.9
20260503040059 46 169 11.0 22.0 0.00 0.01 0.01 51 1020.9
20260503034554 46 121 9.0 28.0 0.00 0.01 0.01 51 1020.7
20260503033104 46 228 11.0 19.0 0.00 0.01 0.01 49 1020.6
20260503031545 47 163 9.0 20.0 0.00 0.01 0.01 48 1020.5
20260503030105 48 193 14.0 24.0 0.00 0.01 0.01 47 1020.6
20260503024601 49 166 11.0 26.0 0.00 0.01 0.01 47 1020.4
20260503023051 49 235 11.0 24.0 0.00 0.01 0.01 42 1020.1
20260503021551 49 205 8.0 24.0 0.00 0.01 0.01 44 1020.1
20260503014551 49 143 11.0 25.0 0.00 0.01 0.01 42 1020.1